MST,Max TemperatureF,Mean TemperatureF,Min TemperatureF,Max Dew PointF,MeanDew PointF,Min DewpointF,Max Humidity, Mean Humidity, Min Humidity, Max Sea Level PressureIn, Mean Sea Level PressureIn, Min Sea Level PressureIn, Max VisibilityMiles, Mean VisibilityMiles, Min VisibilityMiles, Max Wind SpeedMPH, Mean Wind SpeedMPH, Max Gust SpeedMPH,PrecipitationIn, CloudCover, Events, WindDirDegrees
2014-2-1,17,7,-3,7,-1,-11,83,58,33,30.22,30.01,29.79,10,8,0,16,6,23,0.06,4,Fog-Snow,280
2014-2-2,25,13,1,2,-1,-5,87,61,34,30.17,30.12,30.06,10,10,10,18,5,25,0.00,2,,286
2014-2-3,21,11,1,8,3,-2,91,74,56,30.19,29.98,29.77,10,9,2,14,6,18,T,7,Snow,61
2014-2-4,1,-4,-10,-2,-8,-16,91,81,71,30.58,30.15,29.95,10,3,1,15,7,19,0.12,8,Snow,58
2014-2-5,-1,-11,-22,-11,-20,-27,81,73,64,30.70,30.44,30.13,10,9,1,13,4,18,0.01,5,Snow,240
2014-2-6,1,-10,-22,-14,-19,-26,86,67,47,30.54,30.36,30.13,10,10,8,13,4,15,0.00,2,,259
2014-2-7,24,6,-13,12,-4,-18,78,54,30,30.15,29.96,29.79,10,10,10,16,6,24,0.00,0,,284
2014-2-8,23,13,3,16,9,0,92,72,52,30.21,29.92,29.76,10,3,0,13,3,22,0.16,7,Fog-Snow,165
2014-2-9,10,3,-5,4,-2,-8,95,87,79,30.32,30.09,29.92,10,5,1,10,5,13,0.05,7,Snow,227
2014-2-10,33,16,-2,19,11,-5,88,73,58,30.22,30.17,30.09,10,10,10,15,6,19,0.00,6,,249
2014-2-11,38,27,15,20,14,11,88,62,35,30.08,29.96,29.84,10,10,10,23,8,33,0.00,1,,271
2014-2-12,37,24,10,24,16,5,88,71,53,30.11,29.84,29.57,10,10,10,23,10,36,0.00,0,,255
2014-2-13,43,37,30,30,22,14,78,56,34,29.75,29.68,29.56,10,8,1,26,12,40,0.02,4,Snow,302
2014-2-14,36,31,25,26,15,11,69,52,35,29.95,29.85,29.69,10,10,10,21,9,35,T,2,,283
2014-2-15,39,33,27,31,21,10,92,64,35,30.06,29.85,29.68,10,7,1,24,9,39,0.06,4,Rain-Snow,284
2014-2-16,50,37,23,29,22,10,81,60,39,29.91,29.68,29.53,10,10,10,25,10,38,T,2,,263
2014-2-17,40,33,25,18,13,6,60,49,37,29.94,29.81,29.67,10,10,10,33,14,44,0.00,0,,264
2014-2-18,37,30,23,19,12,7,59,46,32,29.94,29.80,29.61,10,10,10,28,10,42,0.00,2,,283
2014-2-19,46,33,19,21,13,1,63,46,28,29.82,29.61,29.45,10,10,10,23,12,35,0.00,2,,274
2014-2-20,26,23,19,11,7,3,67,54,40,29.88,29.78,29.66,10,10,7,29,14,44,T,2,,294
2014-2-21,31,25,19,15,12,9,68,56,43,29.88,29.78,29.65,10,10,5,25,12,40,T,6,Snow,289
2014-2-22,23,16,9,16,11,6,88,78,67,30.17,29.93,29.82,10,4,0,14,4,18,0.14,8,Fog-Snow,140
2014-2-23,14,11,7,8,6,4,91,84,76,30.29,30.11,29.94,10,3,0,9,5,13,0.05,8,Fog-Snow,123
2014-2-24,19,10,0,12,7,-8,100,78,55,30.38,30.03,29.77,10,4,0,14,4,21,0.02,8,Fog-Snow,350
2014-2-25,12,4,-5,6,0,-13,95,84,72,30.47,30.21,30.00,10,6,0,13,5,16,0.03,7,Snow,203
2014-2-26,35,16,-4,-3,-7,-15,60,40,19,30.30,30.08,29.97,10,10,10,22,9,29,0.00,0,,280
2014-2-27,44,24,4,17,8,-5,63,44,25,29.96,29.69,29.48,10,10,10,13,6,20,0.00,0,,264
2014-2-28,33,14,-5,21,8,-10,88,73,58,30.13,29.77,29.47,10,4,0,15,6,22,0.16,8,Fog-Snow,109